| time (UTC) | temp C | wind direction | speed KPH | gust KPH | rain 1hr cm | rain 24hr cm | rain mn cm | humidity % | barometer mb |
| 20260507064549 | 12 | 151 | 3.2 | 3.2 | 0.00 | 0.00 | 0.00 | 84 | 1013.0 |
| 20260507061546 | 7 | 320 | 17.7 | 17.7 | 0.00 | 0.00 | 0.00 | 83 | 1013.0 |
| 20260507054544 | 7 | 320 | 17.7 | 17.7 | 0.00 | 0.00 | 0.00 | 82 | 1013.0 |
| 20260507051541 | 7 | 320 | 17.7 | 17.7 | 0.00 | 0.00 | 0.00 | 82 | 1013.0 |
| 20260507044540 | 7 | 320 | 17.7 | 17.7 | 0.00 | 0.00 | 0.00 | 82 | 1013.0 |
| 20260507041538 | 7 | 320 | 17.7 | 17.7 | 0.00 | 0.00 | 0.00 | 82 | 1013.0 |
| 20260507034535 | 7 | 320 | 17.7 | 17.7 | 0.00 | 0.00 | 0.00 | 82 | 1013.0 |
| 20260507031534 | 7 | 320 | 17.7 | 17.7 | 0.00 | 0.00 | 0.00 | 82 | 1013.0 |
| 20260507024531 | 7 | 320 | 17.7 | 17.7 | 0.00 | 0.00 | 0.00 | 81 | 1014.0 |
| 20260507021529 | 8 | 320 | 17.7 | 17.7 | 0.00 | 0.00 | 0.00 | 80 | 1014.0 |
| 20260507014527 | 8 | 320 | 17.7 | 17.7 | 0.00 | 0.00 | 0.00 | 82 | 1014.0 |
| 20260507011526 | 8 | 320 | 17.7 | 17.7 | 0.00 | 0.00 | 0.00 | 82 | 1014.0 |
| 20260507004522 | 9 | 320 | 17.7 | 17.7 | 0.00 | 0.00 | 0.00 | 83 | 1014.0 |
| 20260507001520 | 9 | 320 | 17.7 | 17.7 | 0.00 | 0.00 | 0.00 | 83 | 1014.0 |
| 20260506234518 | 9 | 320 | 17.7 | 17.7 | 0.00 | 0.00 | 0.00 | 80 | 1015.0 |
| 20260506231516 | 10 | 320 | 17.7 | 17.7 | 0.00 | 0.00 | 0.00 | 80 | 1014.0 |
| 20260506224514 | 10 | 320 | 17.7 | 17.7 | 0.00 | 0.00 | 0.00 | 81 | 1015.0 |
| 20260506221511 | 10 | 320 | 17.7 | 17.7 | 0.00 | 0.00 | 0.00 | 78 | 1015.0 |
| 20260506214509 | 11 | 320 | 17.7 | 17.7 | 0.00 | 0.00 | 0.00 | 76 | 1015.0 |
| 20260506211508 | 11 | 320 | 17.7 | 17.7 | 0.00 | 0.00 | 0.00 | 77 | 1015.0 |
| 20260506204606 | 12 | 320 | 17.7 | 17.7 | 0.00 | 0.00 | 0.00 | 74 | 1015.0 |
| 20260506201604 | 12 | 320 | 17.7 | 17.7 | 0.00 | 0.00 | 0.00 | 70 | 1014.0 |
| 20260506194601 | 13 | 320 | 17.7 | 17.7 | 0.00 | 0.00 | 0.00 | 63 | 1015.0 |
| 20260506191558 | 13 | 320 | 17.7 | 17.7 | 0.00 | 0.00 | 0.00 | 67 | 1014.0 |
| 20260506184556 | 13 | 320 | 17.7 | 17.7 | 0.00 | 0.00 | 0.00 | 68 | 1014.0 |
| 20260506181554 | 14 | 320 | 17.7 | 17.7 | 0.00 | 0.00 | 0.00 | 69 | 1014.0 |
| 20260506174553 | 14 | 320 | 17.7 | 17.7 | 0.00 | 0.00 | 0.00 | 72 | 1014.0 |
| 20260506171550 | 14 | 320 | 17.7 | 17.7 | 0.00 | 0.00 | 0.00 | 80 | 1014.0 |
| 20260506164549 | 14 | 320 | 17.7 | 17.7 | 0.00 | 0.00 | 0.00 | 82 | 1014.0 |
| 20260506161546 | 14 | 320 | 17.7 | 17.7 | 0.00 | 0.00 | 0.00 | 83 | 1014.0 |
| 20260506154544 | 15 | 320 | 17.7 | 17.7 | 0.00 | 0.00 | 0.00 | 81 | 1014.0 |
| 20260506151541 | 15 | 320 | 17.7 | 17.7 | 0.00 | 0.00 | 0.00 | 75 | 1014.0 |
| 20260506144539 | 15 | 320 | 17.7 | 17.7 | 0.00 | 0.00 | 0.00 | 69 | 1014.0 |
| 20260506141538 | 15 | 320 | 17.7 | 17.7 | 0.00 | 0.00 | 0.00 | 62 | 1015.0 |
| 20260506134535 | 14 | 300 | 24.1 | 24.1 | 0.00 | 0.00 | 0.00 | 61 | 1015.0 |
| 20260506131533 | 14 | 300 | 25.7 | 25.7 | 0.00 | 0.00 | 0.00 | 60 | 1015.0 |
| 20260506124531 | 14 | 310 | 20.9 | 20.9 | 0.00 | 0.00 | 0.00 | 60 | 1015.0 |
| 20260506121528 | 14 | 310 | 20.9 | 20.9 | 0.00 | 0.00 | 0.00 | 59 | 1015.0 |
| 20260506114526 | 14 | 300 | 20.9 | 20.9 | 0.00 | 0.00 | 0.00 | 61 | 1015.0 |
| 20260506111524 | 14 | 300 | 20.9 | 20.9 | 0.00 | 0.00 | 0.00 | 59 | 1014.0 |
| 20260506104522 | 14 | 300 | 20.9 | 20.9 | 0.00 | 0.00 | 0.00 | 59 | 1014.0 |
| 20260506101519 | 14 | 300 | 20.9 | 20.9 | 0.00 | 0.00 | 0.00 | 59 | 1014.0 |
| 20260506094517 | 15 | 310 | 19.3 | 19.3 | 0.00 | 0.00 | 0.00 | 59 | 1014.0 |
| 20260506091516 | 14 | 290 | 16.1 | 16.1 | 0.00 | 0.00 | 0.00 | 59 | 1014.0 |
| 20260506084513 | 15 | 24 | 12.9 | 12.9 | 0.00 | 0.00 | 0.00 | 59 | 1014.0 |
| 20260506081511 | 12 | 0 | 4.8 | 4.8 | 0.00 | 0.00 | 0.00 | 64 | 1014.0 |
| 20260506071509 | 11 | 0 | 3.2 | 3.2 | 0.00 | 0.00 | 0.00 | 88 | 1014.0 |